Time,TemperatureF,DewpointF,PressureIn,WindDirection,WindDirectionDegrees,WindSpeedMPH,WindSpeedGustMPH,Humidity,HourlyPrecipIn,Conditions,Clouds,dailyrainin,SoftwareType,DateUTC
2013-04-24 00:14:00,41.9,34.6,30.09,NNW,337,11.4,-999.0,75,-99.99,,,0.00,Acu-Link.com,2013-04-24 05:14:00,
2013-04-24 00:29:00,41.5,34.2,30.09,North,0,9.4,-999.0,75,-99.99,,,0.00,Acu-Link.com,2013-04-24 05:29:00,
2013-04-24 00:44:00,41.4,34.1,30.10,NNE,22,8.9,-999.0,75,-99.99,,,0.00,Acu-Link.com,2013-04-24 05:44:00,
2013-04-24 00:59:00,41.2,33.9,30.11,NNE,22,8.3,-999.0,75,-99.99,,,0.00,Acu-Link.com,2013-04-24 05:59:00,
2013-04-24 01:14:00,41.0,33.4,30.11,NW,315,9.4,-999.0,74,-99.99,,,0.00,Acu-Link.com,2013-04-24 06:14:00,
2013-04-24 01:29:00,40.8,33.2,30.11,NNE,22,10.4,-999.0,74,-99.99,,,0.00,Acu-Link.com,2013-04-24 06:29:00,
2013-04-24 01:44:00,40.6,33.0,30.10,North,0,9.9,-999.0,74,-99.99,,,0.00,Acu-Link.com,2013-04-24 06:44:00,
2013-04-24 02:00:00,40.6,33.0,30.08,NE,45,7.3,-999.0,74,-99.99,,,0.00,Acu-Link.com,2013-04-24 07:00:00,
2013-04-24 02:15:00,40.6,33.0,30.12,NNE,22,6.8,-999.0,74,-99.99,,,0.00,Acu-Link.com,2013-04-24 07:15:00,
2013-04-24 02:30:00,40.6,32.6,30.12,NNE,22,7.8,-999.0,73,-99.99,,,0.00,Acu-Link.com,2013-04-24 07:30:00,
2013-04-24 02:45:00,40.6,33.0,30.12,NE,45,6.3,-999.0,74,-99.99,,,0.00,Acu-Link.com,2013-04-24 07:45:00,
2013-04-24 03:00:00,40.5,32.9,30.12,NNW,337,13.5,-999.0,74,-99.99,,,0.00,Acu-Link.com,2013-04-24 08:00:00,
2013-04-24 03:15:00,40.5,32.5,30.13,NW,315,10.4,-999.0,73,-99.99,,,0.00,Acu-Link.com,2013-04-24 08:15:00,
2013-04-24 03:30:00,40.1,31.8,30.12,NE,45,8.3,-999.0,72,-99.99,,,0.00,Acu-Link.com,2013-04-24 08:30:00,
2013-04-24 03:45:00,39.9,31.6,30.13,NNW,337,11.4,-999.0,72,-99.99,,,0.00,Acu-Link.com,2013-04-24 08:45:00,
2013-04-24 04:01:00,39.7,31.1,30.13,North,0,9.9,-999.0,71,-99.99,,,0.00,Acu-Link.com,2013-04-24 09:01:00,
2013-04-24 04:16:00,39.2,30.6,30.13,NW,315,6.8,-999.0,71,-99.99,,,0.00,Acu-Link.com,2013-04-24 09:16:00,
2013-04-24 04:31:00,38.5,29.9,30.14,NNE,22,12.5,-999.0,71,-99.99,,,0.00,Acu-Link.com,2013-04-24 09:31:00,
2013-04-24 04:46:00,37.9,29.7,30.14,NNW,337,10.4,-999.0,72,-99.99,,,0.00,Acu-Link.com,2013-04-24 09:46:00,
2013-04-24 05:01:00,37.6,29.7,30.15,NNW,337,5.8,-999.0,73,-99.99,,,0.00,Acu-Link.com,2013-04-24 10:01:00,
2013-04-24 05:16:00,37.2,29.4,30.16,NNW,337,7.3,-999.0,73,-99.99,,,0.00,Acu-Link.com,2013-04-24 10:16:00,
2013-04-24 05:32:00,37.0,29.2,30.15,NE,45,7.3,-999.0,73,-99.99,,,0.00,Acu-Link.com,2013-04-24 10:32:00,
2013-04-24 05:47:00,36.7,27.9,30.16,NE,45,8.3,-999.0,70,-99.99,,,0.00,Acu-Link.com,2013-04-24 10:47:00,
2013-04-24 06:02:00,36.3,27.5,30.17,WNW,292,4.7,-999.0,70,-99.99,,,0.00,Acu-Link.com,2013-04-24 11:02:00,
2013-04-24 06:17:00,36.1,27.3,30.17,NNE,22,9.9,-999.0,70,-99.99,,,0.00,Acu-Link.com,2013-04-24 11:17:00,
2013-04-24 06:32:00,35.8,26.6,30.18,NNE,22,6.8,-999.0,69,-99.99,,,0.00,Acu-Link.com,2013-04-24 11:32:00,
2013-04-24 06:47:00,35.8,26.6,30.18,NE,45,5.8,-999.0,69,-99.99,,,0.00,Acu-Link.com,2013-04-24 11:47:00,
2013-04-24 07:03:00,35.6,26.8,30.18,NNE,22,7.3,-999.0,70,-99.99,,,0.00,Acu-Link.com,2013-04-24 12:03:00,
2013-04-24 07:19:00,35.6,26.8,30.17,NNE,22,6.3,-999.0,70,-99.99,,,0.00,Acu-Link.com,2013-04-24 12:19:00,
2013-04-24 07:34:00,36.0,27.2,30.18,NE,45,6.3,-999.0,70,-99.99,,,0.00,Acu-Link.com,2013-04-24 12:34:00,
2013-04-24 07:49:00,36.7,27.5,30.19,NNE,22,6.3,-999.0,69,-99.99,,,0.00,Acu-Link.com,2013-04-24 12:49:00,
2013-04-24 08:04:00,37.6,28.0,30.20,NE,45,6.3,-999.0,68,-99.99,,,0.00,Acu-Link.com,2013-04-24 13:04:00,
2013-04-24 08:20:00,39.2,28.1,30.20,North,0,8.9,-999.0,64,-99.99,,,0.00,Acu-Link.com,2013-04-24 13:20:00,
2013-04-24 08:36:00,40.5,28.5,30.20,NNW,337,8.9,-999.0,62,-99.99,,,0.00,Acu-Link.com,2013-04-24 13:36:00,
2013-04-24 08:51:00,41.5,27.8,30.20,NE,45,4.7,-999.0,58,-99.99,,,0.00,Acu-Link.com,2013-04-24 13:51:00,
2013-04-24 09:07:00,41.7,26.7,30.20,North,0,10.4,-999.0,55,-99.99,,,0.00,Acu-Link.com,2013-04-24 14:07:00,
2013-04-24 09:22:00,43.5,27.1,30.20,NE,45,6.8,-999.0,52,-99.99,,,0.00,Acu-Link.com,2013-04-24 14:22:00,
2013-04-24 09:37:00,44.4,28.4,30.20,NE,45,8.3,-999.0,53,-99.99,,,0.00,Acu-Link.com,2013-04-24 14:37:00,
2013-04-24 09:53:00,44.6,28.5,30.20,NE,45,4.7,-999.0,53,-99.99,,,0.00,Acu-Link.com,2013-04-24 14:53:00,
2013-04-24 10:24:00,46.4,29.3,30.19,NNW,337,8.9,-999.0,51,-99.99,,,0.00,Acu-Link.com,2013-04-24 15:24:00,
2013-04-24 10:39:00,48.6,30.8,30.19,NE,45,6.3,-999.0,50,-99.99,,,0.00,Acu-Link.com,2013-04-24 15:39:00,
2013-04-24 10:54:00,47.5,30.3,30.18,NNW,337,10.4,-999.0,51,-99.99,,,0.00,Acu-Link.com,2013-04-24 15:54:00,
2013-04-24 11:09:00,49.1,31.3,30.18,NE,45,11.4,-999.0,50,-99.99,,,0.00,Acu-Link.com,2013-04-24 16:09:00,
2013-04-24 11:24:00,50.0,32.1,30.18,NE,45,5.8,-999.0,50,-99.99,,,0.00,Acu-Link.com,2013-04-24 16:24:00,
2013-04-24 11:39:00,51.3,32.3,30.18,NE,45,9.4,-999.0,48,-99.99,,,0.00,Acu-Link.com,2013-04-24 16:39:00,
2013-04-24 11:55:00,52.5,32.3,30.17,NE,45,8.9,-999.0,46,-99.99,,,0.00,Acu-Link.com,2013-04-24 16:55:00,
2013-04-24 12:10:00,53.4,32.0,30.17,ENE,67,9.9,-999.0,44,-99.99,,,0.00,Acu-Link.com,2013-04-24 17:10:00,
2013-04-24 12:25:00,54.5,32.5,30.16,NNE,22,6.8,-999.0,43,-99.99,,,0.00,Acu-Link.com,2013-04-24 17:25:00,
2013-04-24 12:41:00,54.9,32.8,30.15,North,0,7.3,-999.0,43,-99.99,,,0.00,Acu-Link.com,2013-04-24 17:41:00,
2013-04-24 12:56:00,55.6,32.3,30.15,North,0,6.8,-999.0,41,-99.99,,,0.00,Acu-Link.com,2013-04-24 17:56:00,
2013-04-24 13:11:00,56.7,32.0,30.15,NNE,22,6.3,-999.0,39,-99.99,,,0.00,Acu-Link.com,2013-04-24 18:11:00,
2013-04-24 13:26:00,57.6,34.1,30.14,NNW,337,4.7,-999.0,41,-99.99,,,0.00,Acu-Link.com,2013-04-24 18:26:00,
2013-04-24 13:41:00,57.7,32.3,30.14,NE,45,9.4,-999.0,38,-99.99,,,0.00,Acu-Link.com,2013-04-24 18:41:00,
2013-04-24 13:56:00,59.2,33.6,30.13,North,0,7.3,-999.0,38,-99.99,,,0.00,Acu-Link.com,2013-04-24 18:56:00,
2013-04-24 14:11:00,59.9,32.2,30.13,NE,45,2.2,-999.0,35,-99.99,,,0.00,Acu-Link.com,2013-04-24 19:11:00,
2013-04-24 14:26:00,60.4,34.7,30.12,West,270,2.2,-999.0,38,-99.99,,,0.00,Acu-Link.com,2013-04-24 19:26:00,
2013-04-24 14:41:00,62.8,35.4,30.11,NE,45,8.9,-999.0,36,-99.99,,,0.00,Acu-Link.com,2013-04-24 19:41:00,
2013-04-24 14:57:00,62.2,34.2,30.11,NNE,22,5.8,-999.0,35,-99.99,,,0.00,Acu-Link.com,2013-04-24 19:57:00,
2013-04-24 15:12:00,62.1,34.8,30.10,ENE,67,3.7,-999.0,36,-99.99,,,0.00,Acu-Link.com,2013-04-24 20:12:00,
2013-04-24 15:28:00,61.2,33.3,30.10,East,90,3.2,-999.0,35,-99.99,,,0.00,Acu-Link.com,2013-04-24 20:28:00,
2013-04-24 15:43:00,63.5,34.6,30.09,ENE,67,4.2,-999.0,34,-99.99,,,0.00,Acu-Link.com,2013-04-24 20:43:00,
2013-04-24 15:59:00,62.8,34.7,30.09,NE,45,4.2,-999.0,35,-99.99,,,0.00,Acu-Link.com,2013-04-24 20:59:00,
2013-04-24 16:14:00,63.5,35.4,30.08,NE,45,5.8,-999.0,35,-99.99,,,0.00,Acu-Link.com,2013-04-24 21:14:00,
2013-04-24 16:29:00,63.5,33.9,30.08,NNE,22,9.4,-999.0,33,-99.99,,,0.00,Acu-Link.com,2013-04-24 21:29:00,
2013-04-24 16:44:00,63.7,34.8,30.07,ESE,112,8.3,-999.0,34,-99.99,,,0.00,Acu-Link.com,2013-04-24 21:44:00,
2013-04-24 16:59:00,64.4,34.7,30.06,NE,45,3.7,-999.0,33,-99.99,,,0.00,Acu-Link.com,2013-04-24 21:59:00,
2013-04-24 17:15:00,64.8,34.2,30.06,NE,45,6.3,-999.0,32,-99.99,,,0.00,Acu-Link.com,2013-04-24 22:15:00,
2013-04-24 17:30:00,64.4,34.7,30.05,NE,45,3.7,-999.0,33,-99.99,,,0.00,Acu-Link.com,2013-04-24 22:30:00,
2013-04-24 17:45:00,64.6,35.6,30.05,East,90,5.3,-999.0,34,-99.99,,,0.00,Acu-Link.com,2013-04-24 22:45:00,
2013-04-24 18:00:00,66.0,36.1,30.05,East,90,5.3,-999.0,33,-99.99,,,0.00,Acu-Link.com,2013-04-24 23:00:00,
2013-04-24 18:17:00,64.2,36.0,30.06,East,90,4.7,-999.0,35,-99.99,,,0.00,Acu-Link.com,2013-04-24 23:17:00,
2013-04-24 18:32:00,65.1,36.0,30.05,NNE,22,4.7,-999.0,34,-99.99,,,0.00,Acu-Link.com,2013-04-24 23:32:00,
2013-04-24 18:47:00,63.9,35.0,30.05,NE,45,5.8,-999.0,34,-99.99,,,0.00,Acu-Link.com,2013-04-24 23:47:00,
2013-04-24 19:02:00,63.7,34.8,30.05,ESE,112,3.7,-999.0,34,-99.99,,,0.00,Acu-Link.com,2013-04-25 00:02:00,
2013-04-24 19:17:00,62.1,34.8,30.06,East,90,4.7,-999.0,36,-99.99,,,0.00,Acu-Link.com,2013-04-25 00:17:00,
2013-04-24 19:32:00,61.3,34.8,30.06,East,90,3.7,-999.0,37,-99.99,,,0.00,Acu-Link.com,2013-04-25 00:32:00,
2013-04-24 19:48:00,59.4,35.1,30.06,East,90,5.3,-999.0,40,-99.99,,,0.00,Acu-Link.com,2013-04-25 00:48:00,
2013-04-24 20:03:00,58.6,35.0,30.08,ESE,112,5.3,-999.0,41,-99.99,,,0.00,Acu-Link.com,2013-04-25 01:03:00,
2013-04-24 20:19:00,58.3,34.7,30.08,ESE,112,4.2,-999.0,41,-99.99,,,0.00,Acu-Link.com,2013-04-25 01:19:00,
2013-04-24 20:34:00,58.1,33.9,30.08,East,90,4.2,-999.0,40,-99.99,,,0.00,Acu-Link.com,2013-04-25 01:34:00,
2013-04-24 20:49:00,58.1,33.9,30.09,East,90,4.2,-999.0,40,-99.99,,,0.00,Acu-Link.com,2013-04-25 01:49:00,
2013-04-24 21:05:00,57.9,34.3,30.09,East,90,3.7,-999.0,41,-99.99,,,0.00,Acu-Link.com,2013-04-25 02:05:00,
2013-04-24 21:20:00,57.6,34.7,30.09,ESE,112,3.2,-999.0,42,-99.99,,,0.00,Acu-Link.com,2013-04-25 02:20:00,
2013-04-24 21:35:00,57.2,34.3,30.10,East,90,6.3,-999.0,42,-99.99,,,0.00,Acu-Link.com,2013-04-25 02:35:00,
2013-04-24 21:50:00,56.8,34.5,30.11,East,90,3.7,-999.0,43,-99.99,,,0.00,Acu-Link.com,2013-04-25 02:50:00,
2013-04-24 22:06:00,56.8,35.1,30.12,ESE,112,6.3,-999.0,44,-99.99,,,0.00,Acu-Link.com,2013-04-25 03:06:00,
2013-04-24 22:21:00,56.8,35.1,30.12,East,90,4.2,-999.0,44,-99.99,,,0.00,Acu-Link.com,2013-04-25 03:21:00,
2013-04-24 22:38:00,56.5,34.9,30.13,ESE,112,5.8,-999.0,44,-99.99,,,0.00,Acu-Link.com,2013-04-25 03:38:00,
2013-04-24 22:55:00,55.9,34.3,30.13,East,90,5.8,-999.0,44,-99.99,,,0.00,Acu-Link.com,2013-04-25 03:55:00,
2013-04-24 23:10:00,55.4,33.9,30.14,East,90,3.7,-999.0,44,-99.99,,,0.00,Acu-Link.com,2013-04-25 04:10:00,
2013-04-24 23:25:00,55.2,33.7,30.15,ESE,112,5.3,-999.0,44,-99.99,,,0.00,Acu-Link.com,2013-04-25 04:25:00,
2013-04-24 23:41:00,54.9,34.0,30.16,ESE,112,3.2,-999.0,45,-99.99,,,0.00,Acu-Link.com,2013-04-25 04:41:00,
2013-04-24 23:56:00,54.7,34.9,30.16,ESE,112,2.2,-999.0,47,-99.99,,,0.00,Acu-Link.com,2013-04-25 04:56:00,